星链-1096 (STARLINK-1096 )

导读 | 星芒AI

STARLINK-1096 是 SpaceX Starlink 项目中的第 1096 颗卫星,属于低轨卫星互联网星座的一部分。该卫星于 2023 年发射,旨在为全球用户提供高速、低延迟的互联网服务,尤其关注网络覆盖不足的地区。它采用先进的通信技术,支持 Ku 和 Ka 频段,具备自动避撞功能,以确保在轨安全。Starlink 卫星群的部署加速了全球宽带接入的普及,同时也在科研、应急通信等领域发挥重要作用。

基本信息
目录编号:
44942
目录名称:
STARLINK-1096
国际标识:
2020-001AE
轨道中心:
EARTH
卫星名称:
星链-1096
卫星全名:
星链-1096 (STARLINK-1096 )
卫星状态:
在轨 (已飞行2122 天)
发射日期:
2020-01-07 UTC
国别 :
美国 (US)
星等 :
--
轨道信息
数据来源 国际轨道数据
星历时间: 2025-10-29T00:00:07+0800
15小时前
查看轨道信息
半长轴: 6682.825km
偏心率: 0.0007911
轨道倾角: 52.987°
近地点辐角 37.147°
升交点赤经 319.762°
平近点角 259.320°
近地点: 299.403km
远地点: 309.977km
周期: 90.615分钟
每日圈数: 15.89142
详细信息
固有亮度:
5
最大亮度:
2.5
卫星平台:
Starlink V1.0
覆盖范围:
全球
运营商:
太空探索技术公司
运营商所在国:
美国
制造商(研发单位):
太空探索技术公司
制造商所在国:
美国
使用方式:
暂无
卫星简介
星链(Starlink)计划是由太空探索技术公司(SpaceX)提出的一个巨型低轨卫星互联网星座项目,计划在2019年至2024年间在太空搭建由约1.2万颗卫星组成的“星链”网络,其中1584颗将部署在地球上空550千米处的近地轨道,并从2020年开始工作。该卫星仍在工作。
2D轨道图
3D轨道图
轨道高度分析图
轨道倾角分析图
轨道综合分析图
查看轨道综合分析图